Regional Weather Roundup
Issued by NWS

Home | Current Version | Previous Version | Graphics & Text | Print | Product List | Glossary On
Versions: 1 2 3 4 5 6 7 8 9 10 11 12 13 14 15 16 17 18 19 20 21 22 23 24 25 26 27 28 29 30 31 32 33 34 35 36 37 38 39 40 41 42 43 44 45 46 47 48 49 50
000
ASUS43 KBIS 050101
RWRND

NORTH DAKOTA REGIONAL WEATHER ROUNDUP
NATIONAL WEATHER SERVICE BISMARCK ND
700 PM CST WED MAR 04 2015

NOTE: "FAIR" INDICATES FEW OR NO CLOUDS BELOW 12,000 FEET WITH NO
SIGNIFICANT WEATHER AND/OR OBSTRUCTIONS TO VISIBILITY.


NDZ001>003-009>011-017-050200-
NORTHWEST NORTH DAKOTA

CITY           SKY/WX    TMP DP  RH WIND       PRES   REMARKS
WILLISTON        N/A    N/A N/A N/A MISG      30.26F
MINOT          CLEAR     -3 -13  62 W5        30.31S WCI -13
MINOT AFB      CLEAR     -6 -12  72 W6        30.31S WCI -18
$$

NDZ018>021-031>035-040>046-050200-
SOUTHWEST NORTH DAKOTA

CITY           SKY/WX    TMP DP  RH WIND       PRES   REMARKS
BISMARCK       CLEAR      3  -9  57 N7        30.35R WCI  -9
DICKINSON      CLEAR      6  -9  50 CALM      30.19F
GARRISON         N/A     -6 -13  71 NW6       30.30S WCI -19
HETTINGER ARPT CLEAR      6  -9  50 NW5       30.22S WCI  -3
$$

NDZ004>008-012>016-024-026-027-054-050200-
NORTHEAST NORTH DAKOTA

CITY           SKY/WX    TMP DP  RH WIND       PRES   REMARKS
GRAND FORKS    CLEAR     -4 -13  65 NW6       30.38R WCI -16
GRND FRKS AFB  CLEAR     -2 -12  61 NW8       30.37R WCI -17
DEVILS LAKE    CLEAR     -6 -17  59 W7        30.32S WCI -20
$$

NDZ022-023-025-028>030-036>039-047>053-050200-
SOUTHEAST NORTH DAKOTA

CITY           SKY/WX    TMP DP  RH WIND       PRES   REMARKS
FARGO          CLEAR      2  -8  63 NW8       30.39R WCI -12
JAMESTOWN      CLEAR     -3 -11  68 NW9       30.34R WCI -19
$$




USA.gov is the U.S. government's official web portal to all federal, state and local government web resources and services.